Weather History for KAMA - May, 2013

Change the Weather History Date:

Sunday, May 26, 2013

  Actual Average Record
Temperature  
Mean Temperature 80 °F 69 °F  
Max Temperature 97 °F 82 °F 100 °F (1953)
Min Temperature 62 °F 55 °F 39 °F (1950)
Degree Days  
Heating Degree Days 0 1  
Month to date heating degree days 94 78  
Since 1 July heating degree days 3736 4166  
Cooling Degree Days 15 5  
Month to date cooling degree days 141 76  
Year to date cooling degree days 186 97  
Growing Degree Days 30 (Base 50)    
Moisture  
Dew Point 54 °F    
Average Humidity 54    
Maximum Humidity 90    
Minimum Humidity 18    
Precipitation  
Precipitation 0.00 in 0.10 in 3.86 in (1905)
Month to date precipitation 1.57 1.77  
Year to date precipitation 5.06 5.84  
Snow  
Snow 0.00 in 0.00 in 0.00 in ()
Month to date snowfall T 0.2  
Since 1 July snowfall 29.7 17.8  
Snow Depth 0.00 in    
Sea Level Pressure  
Sea Level Pressure 29.78 in    
Wind  
Wind Speed 18 mph (South)    
Max Wind Speed 32 mph    
Max Gust Speed 40 mph    
Visibility 10 miles    
Events      
T = Trace of Precipitation, MM = Missing Value Source: NWS Daily Summary

Daily Weather History Graph

Daily Weather History Graph

Search for Another Location

Airport or City:

Trip Planner

Search our weather history database for the weather conditions in past years. The results will help you decide how hot, cold, wet, or windy it might be!

Date:

Astronomy

May. 26, 2013 Rise Set
Actual Time 6:35 AM CDT 8:52 PM CDT
Civil Twilight 6:06 AM CDT 9:21 PM CDT
Nautical Twilight 5:31 AM CDT 9:57 PM CDT
Astronomical Twilight 4:52 AM CDT 10:35 PM CDT
Moon 10:42 PM CDT (5/26) 8:06 AM CDT (5/26)
Length of Visible Light 15h 14m
Length of Day
14h 16m
Waning Gibbous, 96% of the Moon is Illuminated
May 26
Waning Gibbous
May 31
Last Quarter
Jun 8
New
Jun 16
First Quarter
Jun 23
Full

Hourly Weather History & Observations

Time (CDT) Temp. Heat Index Dew Point Humidity Pressure Visibility Wind Dir Wind Speed Gust Speed Precip Events Conditions
12:53 AM 66.0 °F - 55.9 °F 70% 29.86 in 10.0 mi SSE 16.1 mph - N/A   Clear
1:53 AM 68.0 °F - 59.0 °F 73% 29.81 in 10.0 mi South 18.4 mph - N/A   Clear
2:53 AM 69.1 °F - 61.0 °F 75% 29.77 in 10.0 mi South 17.3 mph - N/A   Clear
3:53 AM 66.9 °F - 61.0 °F 81% 29.79 in 10.0 mi SSW 13.8 mph - N/A   Clear
4:53 AM 68.0 °F - 59.0 °F 73% 29.80 in 10.0 mi SE 11.5 mph - N/A   Clear
5:53 AM 63.0 °F - 59.0 °F 87% 29.85 in 10.0 mi SE 4.6 mph - N/A   Clear
6:53 AM 63.0 °F - 57.9 °F 84% 29.86 in 10.0 mi SE 5.8 mph - N/A   Clear
7:53 AM 66.9 °F - 55.0 °F 66% 29.86 in 10.0 mi South 8.1 mph - N/A   Clear
8:53 AM 70.0 °F - 54.0 °F 57% 29.86 in 10.0 mi South 12.7 mph - N/A   Clear
9:53 AM 75.0 °F - 54.0 °F 48% 29.89 in 10.0 mi SSW 12.7 mph - N/A   Clear
10:53 AM 79.0 °F - 54.0 °F 42% 29.86 in 10.0 mi South 20.7 mph 26.5 mph N/A   Clear
11:53 AM 84.0 °F 82.5 °F 53.1 °F 34% 29.84 in 10.0 mi South 20.7 mph - N/A   Clear
12:53 PM 88.0 °F - 52.0 °F 29% 29.81 in 10.0 mi South 21.9 mph 28.8 mph N/A   Unknown
1:53 PM 91.0 °F - 50.0 °F 24% 29.78 in 10.0 mi SSW 17.3 mph 25.3 mph N/A   Clear
2:53 PM 93.0 °F - 48.9 °F 22% 29.75 in 10.0 mi South 21.9 mph 26.5 mph N/A   Clear
3:53 PM 93.9 °F - 46.9 °F 20% 29.73 in 10.0 mi South 20.7 mph 27.6 mph N/A   Clear
4:53 PM 96.1 °F - 46.0 °F 18% 29.70 in 10.0 mi SSW 17.3 mph 23.0 mph N/A   Clear
5:53 PM 93.0 °F - 46.9 °F 20% 29.69 in 10.0 mi South 19.6 mph 33.4 mph N/A   Clear
6:53 PM 93.0 °F - 48.0 °F 21% 29.68 in 10.0 mi SSE 21.9 mph 31.1 mph N/A   Clear
7:53 PM 91.9 °F - 44.1 °F 19% 29.67 in 10.0 mi South 21.9 mph - N/A   Clear
8:53 PM 88.0 °F - 41.0 °F 19% 29.68 in 10.0 mi South 18.4 mph - N/A   Clear
9:53 PM 84.9 °F 83.9 °F 57.0 °F 38% 29.69 in 10.0 mi SSE 32.2 mph 40.3 mph N/A   Clear
10:53 PM 82.9 °F 82.8 °F 59.0 °F 44% 29.71 in 10.0 mi SSE 23.0 mph 29.9 mph N/A   Clear
11:53 PM 81.0 °F 81.3 °F 59.0 °F 47% 29.73 in 10.0 mi South 27.6 mph 33.4 mph N/A   Clear